Other Public Products
Issued by NWS Grand Forks, ND

Home | Current Version | Previous Version | Graphics & Text | Print | Product List | Glossary On
Versions: 1 2 3 4 5 6 7 8 9 10 11 12 13 14 15 16 17 18 19 20 21 22 23 24 25 26 27 28 29 30 31 32 33 34 35 36 37 38 39 40 41 42 43 44 45 46 47 48 49 50
269
FPUS83 KFGF 241310
OPUFGF
PRAIRIE TO PINES WEATHER ROUNDUP
NATIONAL WEATHER SERVICE EASTERN NORTH DAKOTA/GRAND FORKS ND
800 AM CDT SAT JUN 24 2017

 **SATELLITE DATA USED TO AUGMENT SKY COVER AT AUTOMATED STATIONS**
 *****  WEATHER ACROSS EASTERN NORTH DAKOTA  *****

CITY           SKY/WX    TMP DP  RH WIND       PRES   REMARKS
GRAND FORKS    PTSUNNY   52  49  89 NW12      29.99R
GRAND FORKS AF CLOUDY    51  48  90 NW8       30.00R
GRAND CITY NWS NOT AVBL
BUXTON         NOT AVBL
DEVILS LAKE    FAIR      49  43  80 NW18      30.05R
FARGO          CLOUDY    54  45  71 W15       30.00S
WAHPETON ARPT  CLOUDY    50  41  71 W9        30.03S
$$

 *****  WEATHER ACROSS CENTRAL AND WESTERN NORTH DAKOTA  *****

CITY           SKY/WX    TMP DP  RH WIND       PRES   REMARKS
JAMESTOWN      FAIR      50  42  74 NW17      30.06R
BISMARCK       FAIR      53  41  63 NW12      30.15S
MINOT          CLOUDY    47  41  80 W22       30.14R
MINOT AFB      PTSUNNY   47  40  77 NW18      30.13R
GARRISON         N/A     45  39  79 NW20      30.15R
WILLISTON      FAIR      49  37  63 N15G23    30.24R
DICKINSON      FAIR      49  34  56 NW15      30.20R
HETTINGER      PTSUNNY   52  35  52 NW13      30.23R
$$

 *****  OTHER OBSERVATIONS NORTHEAST NORTH DAKOTA  *****

CITY           SKY/WX    TMP DP  RH WIND       PRES   REMARKS
WALHALLA       NOT AVBL
LANGDON        CLOUDY    48  46  93 NW21G29   30.01S
CAVALIER       FAIR      52  43  71 NW14G21   29.98R
GRAFTON        FAIR      54  46  76 NW16G23   30.00S
CANDO          NOT AVBL
FORT TOTTEN      N/A     49  44  84 NW7       29.95S
ROLLA          NOT AVBL
RUGBY          NOT AVBL
 ***** THE ABOVE OBSERVATIONS ARE NON NWS ARE NOT QUALITY
        CONTROLLED AND MAY MIS-REPORT RAIN FOR SNOW...
$$

 *****  OTHER OBSERVATIONS SOUTHEAST NORTH DAKOTA *****

CITY           SKY/WX    TMP DP  RH WIND       PRES   REMARKS
COOPERSTOWN    NOT AVBL
VALLEY CITY    FAIR      50  46  87 NW18G25   30.05S
OAKES          NOT AVBL
GWINNER        NOT AVBL
SHEYENNE NWR     N/A     53  42  67 NW12      29.95S
BUFFALO        NOT AVBL
WYNDMERE       NOT AVBL
 ***** THE ABOVE OBSERVATIONS ARE NON NWS ARE NOT QUALITY
       CONTROLLED AND MAY MIS-REPORT RAIN FOR SNOW...
$$

  *****  WEATHER ACROSS NORTHERN MINNESOTA  *****

CITY           SKY/WX    TMP DP  RH WIND       PRES   REMARKS
FLAG ISLAND    FAIR      50  46  87 NW15      29.89R
WARROAD        FAIR      50  46  87 W10       29.93R
ROSEAU         CLOUDY    50  45  81 NW10      29.93S
HALLOCK        CLOUDY    52  46  82 NW15      29.96S
THF RVR FALLS  CLOUDY    52  46  82 NW12      29.97S
HALSTAD        NOT AVBL
FOSSTON        CLOUDY    48  43  81 W8        29.97S
BAUDETTE       FAIR      50  48  93 W8        29.91S
WASKISH        FAIR      52  46  82 W10       29.93R
CROOKSTON      CLOUDY    50  48  93 NW14      29.99S
$$
  *****  WEATHER ACROSS CENTRAL AND WEST MINNESOTA  *****

CITY           SKY/WX    TMP DP  RH WIND       PRES   REMARKS
BEMIDJI        CLOUDY    51  43  75 W10       29.94S
PARK RAPIDS    CLOUDY    51  40  65 W12       29.97S
WADENA         CLOUDY    50  43  76 W6        29.99S
DETROIT LAKES  PTSUNNY   52  41  66 W12G18    30.00S
MOORHEAD       FAIR      54  43  66 NW18      30.01S
FERGUS FALLS   PTSUNNY   50  43  76 NW9       30.01S
ELBOW LAKE     CLOUDY    50  42  74 NW9       30.04S
MORRIS MN      PTSUNNY   54  43  66 NW8       30.03F
STAPLES        CLOUDY    52  41  66 W10       29.99S
WHEATON        FAIR      54  41  62 W8        30.06S
$$
  *****  WEATHER ELSEWHERE ACROSS MINNESOTA  *****

CITY           SKY/WX    TMP DP  RH WIND       PRES   REMARKS
DULUTH         CLOUDY    53  48  83 NW12      29.89R
INTRNTL FALLS  CLOUDY    52  49  89 W8        29.89R
ELY            CLOUDY    52  50  93 W7        29.87R
CLOQUET        CLOUDY    54  43  66 W13G18    29.91S
BRAINERD       FAIR      53  43  68 W14       29.97S
HIBBING        CLOUDY    51  49  92 W7        29.90S
ALEXANDRIA     PTSUNNY   52  42  69 NW13      30.03S
SAINT CLOUD    FAIR      56  42  59 NW15      30.00S
MINNEAPOLIS    FAIR      58  43  57 NW12      30.00S
$$

  *****  WEATHER ACROSS SOUTH DAKOTA  *****

CITY           SKY/WX    TMP DP  RH WIND       PRES   REMARKS
SIOUX FALLS    FAIR      57  46  66 W5        30.11F
BROOKINGS      PTSUNNY   52  43  71 SW9       30.10S
WATERTOWN      CLOUDY    51  41  68 W12       30.07F
HURON          PTSUNNY   53  43  68 SW8       30.11S
SISSETON         N/A     51  45  79 W10       30.04F
ABERDEEN       CLOUDY    51  43  74 W6        30.09S
MITCHELL       FAIR      56  42  59 W7        30.14S
PIERRE         FAIR      51  37  58 W8        30.15S
MOBRIDGE       FAIR      54  39  57 NW13      30.13S
RAPID CITY     FAIR      58  31  35 W10       30.25S
$$

  *****  SOME WEATHER IN NEARBY STATES *****

CITY           SKY/WX    TMP DP  RH WIND       PRES   REMARKS
GLASGOW MT     FAIR      50  35  56 NE3       30.28R
GREAT FALLS MT FAIR      48  39  71 SW9       30.34R
CHEYENNE WY    CLOUDY    53  32  44 CALM      30.35R
SCOTTSBLUFF NE CLOUDY    57  41  55 CALM      30.30S
OMAHA NE       FAIR      60  46  59 CALM      30.17R
DES MOINES IA  FAIR      60  45  57 NW12      30.11R
DAVENPORT IA   FAIR      62  52  69 W15       30.02R
CHICAGO IL     FAIR      66  55  67 NW13      29.92R
EAU CLAIRE WI  FAIR      57  49  74 W10       29.95R
LA CROSSE WI   FAIR      65  51  60 NW12      29.96R
$$

  *****  SOME NATIONAL WEATHER *****

CITY           SKY/WX    TMP DP  RH WIND       PRES   REMARKS
LA GUARDIA NY  LGT RAIN  72  71  97 CALM      29.60R
RALEIGH NC     PTSUNNY   81  74  79 W10       29.94R
ATLANTA GA     LGT RAIN  74  72  93 SW9       30.03R FOG
NEW ORLEANS LA FAIR      80  79  96 VRB6      30.01F
OKLAHOMA CITY  CLOUDY    70  52  52 E10       30.19R
ALBUQUERQUE NM FAIR      69  52  54 NE10      30.25R
SALT LAKE CITY FAIR      63  42  46 MISG      30.19R
LOS ANGELES CA CLOUDY    62  60  93 NW5       29.87S
BOISE ID       FAIR      57  40  52 S3        30.16R
SEATTLE WA     FAIR      62  51  67 NE6       30.15S
$$

*** WEATHER ACROSS MANITOBA...SASKATCHEWAN AND ONTARIO ***
                ***ONTARIO***

CITY           SKY/WX    TMP DP  RH WIND       PRES   REMARKS
GERALDTON      PTSUNNY   55  50  82 N3        29.81R
THUNDER BAY    PTSUNNY   59  54  82 VRB2      29.81R
SIOUX LOOKOUT  PTSUNNY   55  50  82 E5        29.84R
TORONTO        MOSUNNY   68  48  49 NW15      29.73R
BIG TROUT LK   CLOUDY    43  39  87 NE8       29.96R
PICKLE LAKE    PTSUNNY   52  45  76 NE6       29.89R
DRYDEN         RAIN      52  50  93 NW7       29.85R FOG
KENORA         LGT RAIN  50  48  93 W7        29.88R FOG
$$
                *** MANITOBA***

CITY           SKY/WX    TMP DP  RH WIND       PRES   REMARKS
BRANDON        CLOUDY    48  45  87 NW15G22   30.06R
DAUPHIN        LGT RAIN  50  48  93 N8        30.09R
ISLAND LAKE    PTSUNNY   48  39  71 NE7       30.06R
PILOT MOUND      N/A     46  43  87 NW15G22     N/A
THE PAS        DRIZZLE   48  45  87 NW8       30.17R
THOMPSON       CLOUDY    50  43  76 VRB2      30.11S
WINNIPEG       DRIZZLE   50  50 100 W10       29.92R FOG
LYNN LAKE      PTSUNNY   52  43  71 NW7       30.16R
CHURCHILL      MOSUNNY   45  39  81 N15       30.04R
GILLAM         PTSUNNY   50  39  66 NW9       30.05F
$$
                ***SASKATCHEWAN***

CITY           SKY/WX    TMP DP  RH WIND       PRES   REMARKS
ESTEVAN        PTSUNNY   45  41  87 NW17G23   30.21S
KINDERSLEY     MOSUNNY   48  43  81 NW3       30.26R
LLOYDMINSTER   PTSUNNY   50  43  76 VRB2      30.25R
PRINCE ALBERT  MOSUNNY   48  43  81 W3        30.26S
REGINA         MOSUNNY   43  41  93 NW10      30.27R
YORKTON        CLOUDY    46  41  81 NW17G23   30.18S



USA.gov is the U.S. government's official web portal to all federal, state and local government web resources and services.